DELTA 1 DEB *, 6213

Orbit data source: Space-Track

DELTA 1 DEB *, 6213 is space debris in SSO originally from a launch on Sun, 02 Oct 1966 UTC launched from the Air Force Western Test Range (AFWTR). Debris objects in space refer to the collection of defunct objects orbiting the Earth. Examples of debris include non-operational satellites, rocket bodies, and fragments generated from explosions, collisions, or faulty payload assembly.

Loading next visibility...
Identifier
6213, 1966-087E
Orbit
SSO
Country
Flag of USUS
Related business
Manufacturer
Unknown
Mission
Spacecraft
Bus & Motor
Unknown
Mass
Unknown
Launch date (UTC)
1966-10-02 (59 years ago)
Launch vehicle
Unknown
Launch site
Air Force Western Test Range (AFWTR)
Object type
Payload
Rocket body
Debris
Shape & HBR
Unknown shape, 0.1 m
Radar Cross Section
Small (<0.1 m²)

Expand to show TLE details & history
Last TLE update: 16 hours ago

TLE from 16 hours ago
0 DELTA 1 DEB *
1 06213U 66087E   25301.23628453  .00003742  00000-0  87841-2 0  9999
2 06213 101.7620 288.2906 0057013  16.4492   2.6417 13.24188693765630
Epoch: 2025-10-28T05:40Z
TLE epoch observation values (Epoch: 2025-10-28T05:40:14.983Z)
Latitude
18.7034°
Longitude
162.37995°
Altitude
1,127.949 km
Speed
7.311 km/s
True Right ascension
18h 57m 04s
True Declination
18° 36' 16"
Sunlit
Object was in daylight at epoch
Visualization orbit readout
Latitude
Unknown
Longitude
Unknown
Altitude
Unknown
Speed
Unknown
Apparent Right ascension
Unknown
Apparent Declination
Unknown
Sunlit
N/A
Visualization observer readout
Local Sidereal Time
17:36:06
Azimuth
Unknown
Elevation
Unknown
Doppler factor
Unknown
Orbital elements
Apogee altitude
1,209.227 km
Perigee altitude
1,123.201 km
Semi-major axis
7,544.351 km
Eccentricity
0.0057
Inclination
101.762°
RAAN
288.2906°
Arg. of periapsis
16.4492°
True anomaly
2.67203°
Mean anomaly
2.6417°
Eccentric anomaly
2.65684°
Mean motion
3.31215 °/min
Orbital period
108.69 mins
BSTAR
0.0087841
Loading maneuver chart data...
Computing Atmospheric mass density...
Loading historical data...
Loading historical data...
Loading historical data...
Loading historical data...
Loading historical data...
Loading historical data...
Loading historical data...
Other satellites on launch #87 in the year 1966 (1966-10-02 UTC)

Documentation

Showing up to 5 results
|